| time (UTC) | temp F | wind direction | speed MPH | gust MPH | rain 1hr in | rain 24hr in | rain mn in | humidity % | barometer mb |
| 20260905154910 | 71 | 324 | 1.0 | 3.0 | 0.00 | 0.00 | 0.00 | 72 | 1020.7 |
| 20260905153410 | 72 | 90 | 0.0 | 2.0 | 0.00 | 0.68 | 0.00 | 71 | 1020.6 |
| 20260905151910 | 72 | 90 | 1.0 | 2.0 | 0.00 | 0.00 | 0.00 | 69 | 1020.5 |
| 20260905150410 | 72 | 90 | 1.0 | 2.0 | 0.00 | 0.00 | 0.00 | 67 | 1020.7 |
| 20260905144910 | 72 | 90 | 2.0 | 4.0 | 0.00 | 0.00 | 0.00 | 67 | 1020.8 |
| 20260905143410 | 72 | 116 | 0.0 | 4.0 | 0.00 | 0.00 | 0.00 | 67 | 1020.9 |
| 20260905141910 | 72 | 81 | 1.0 | 3.0 | 0.00 | 0.00 | 0.00 | 68 | 1021.2 |
| 20260905140410 | 72 | 85 | 2.0 | 5.0 | 0.00 | 0.00 | 0.00 | 66 | 1021.2 |
| 20260905134910 | 71 | 53 | 3.0 | 6.0 | 0.00 | 0.00 | 0.00 | 69 | 1021.3 |
| 20260905133410 | 70 | 83 | 2.0 | 10.0 | 0.00 | 0.00 | 0.00 | 70 | 1021.3 |
| 20260905131910 | 75 | 46 | 8.0 | 16.0 | 0.00 | 0.00 | 0.00 | 61 | 1021.4 |
| 20260905130410 | 78 | 33 | 5.0 | 10.0 | 0.00 | 0.00 | 0.00 | 52 | 1020.8 |
| 20260905124911 | 80 | 47 | 5.0 | 14.0 | 0.00 | 0.00 | 0.00 | 49 | 1020.6 |
| 20260905123410 | 80 | 44 | 8.0 | 14.0 | 0.00 | 0.00 | 0.00 | 49 | 1020.5 |
| 20260905081910 | 78 | 297 | 1.0 | 5.0 | 0.00 | 0.00 | 0.00 | 66 | 1018.4 |
| 20260905080410 | 77 | 279 | 1.0 | 6.0 | 0.00 | 0.00 | 0.00 | 67 | 1018.1 |
| 20260905074910 | 76 | 257 | 3.0 | 4.0 | 0.00 | 0.00 | 0.00 | 68 | 1017.9 |
| 20260905073410 | 76 | 295 | 3.0 | 5.0 | 0.00 | 0.00 | 0.00 | 70 | 1017.9 |
| 20260905071910 | 75 | 257 | 4.0 | 7.0 | 0.00 | 0.00 | 0.00 | 70 | 1017.6 |
| 20260905070410 | 75 | 292 | 3.0 | 8.0 | 0.00 | 0.00 | 0.00 | 71 | 1017.5 |
| 20260905064914 | 73 | 292 | 3.0 | 6.0 | 0.00 | 0.00 | 0.00 | 74 | 1017.6 |
| 20260905063414 | 71 | 253 | 0.0 | 1.0 | 0.00 | 0.00 | 0.00 | 77 | 1017.5 |
| 20260905061914 | 71 | 253 | 2.0 | 3.0 | 0.00 | 0.00 | 0.00 | 78 | 1017.4 |
| 20260905060414 | 70 | 252 | 0.0 | 0.0 | 0.00 | 0.00 | 0.00 | 79 | 1017.4 |
| 20260905054913 | 69 | 252 | 0.0 | 0.0 | 0.00 | 0.00 | 0.00 | 80 | 1017.3 |
| 20260905053413 | 68 | 252 | 0.0 | 0.0 | 0.00 | 0.00 | 0.00 | 80 | 1017.3 |
| 20260905051913 | 67 | 252 | 0.0 | 3.0 | 0.00 | 0.00 | 0.00 | 81 | 1017.0 |
| 20260905050413 | 67 | 253 | 3.0 | 4.0 | 0.00 | 0.00 | 0.00 | 79 | 1016.7 |
| 20260905044913 | 68 | 231 | 0.0 | 3.0 | 0.00 | 0.00 | 0.00 | 79 | 1016.5 |
| 20260905043413 | 67 | 234 | 3.0 | 4.0 | 0.00 | 0.00 | 0.00 | 80 | 1016.7 |
| 20260905041913 | 67 | 305 | 0.0 | 0.0 | 0.00 | 0.00 | 0.00 | 80 | 1016.6 |
| 20260905034912 | 67 | 292 | 2.0 | 4.0 | 0.00 | 0.00 | 0.00 | 80 | 1016.3 |
| 20260905033412 | 68 | 360 | 1.0 | 4.0 | 0.00 | 0.00 | 0.00 | 77 | 1016.2 |
| 20260905031912 | 69 | 220 | 1.0 | 2.0 | 0.00 | 0.00 | 0.00 | 76 | 1016.3 |
| 20260905030412 | 70 | 220 | 1.0 | 3.0 | 0.00 | 0.00 | 0.00 | 75 | 1016.4 |
| 20260905024912 | 70 | 291 | 1.0 | 3.0 | 0.00 | 0.00 | 0.00 | 75 | 1016.4 |
| 20260905023411 | 70 | 288 | 1.0 | 4.0 | 0.00 | 0.00 | 0.00 | 75 | 1016.5 |
| 20260905021911 | 70 | 295 | 1.0 | 6.0 | 0.00 | 0.00 | 0.00 | 74 | 1016.4 |
| 20260905020411 | 71 | 298 | 3.0 | 5.0 | 0.00 | 0.00 | 0.00 | 73 | 1016.4 |
| 20260905013411 | 72 | 355 | 0.0 | 3.0 | 0.00 | 0.00 | 0.00 | 70 | 1016.5 |
| 20260905011911 | 75 | 277 | 4.0 | 8.0 | 0.00 | 0.00 | 0.00 | 65 | 1016.5 |
| 20260905010415 | 76 | 265 | 2.0 | 6.0 | 0.00 | 0.00 | 0.00 | 64 | 1016.5 |
| 20260905004915 | 76 | 265 | 5.0 | 13.0 | 0.00 | 0.00 | 0.00 | 64 | 1016.7 |
| 20260905003415 | 76 | 285 | 7.0 | 11.0 | 0.00 | 0.00 | 0.00 | 64 | 1016.5 |
| 20260905001915 | 76 | 292 | 11.0 | 14.0 | 0.00 | 0.00 | 0.00 | 63 | 1016.4 |
| 20260905000417 | 76 | 263 | 5.0 | 11.0 | 0.00 | 0.00 | 0.00 | 63 | 1016.6 |
| 20260904234915 | 76 | 298 | 4.0 | 17.0 | 0.00 | 0.00 | 0.00 | 64 | 1016.6 |
| 20260904233415 | 76 | 17 | 10.0 | 15.0 | 0.00 | 0.00 | 0.00 | 64 | 1016.6 |
| 20260904230414 | 76 | 278 | 6.0 | 12.0 | 0.00 | 0.00 | 0.00 | 64 | 1016.8 |
| 20260904224914 | 76 | 264 | 3.0 | 10.0 | 0.00 | 0.00 | 0.00 | 64 | 1016.7 |
| 20260904223414 | 77 | 265 | 6.0 | 20.0 | 0.00 | 0.00 | 0.00 | 63 | 1016.9 |
| 20260904214914 | 78 | 273 | 10.0 | 19.0 | 0.00 | 0.00 | 0.00 | 61 | 1016.9 |
| 20260904213413 | 78 | 273 | 7.0 | 14.0 | 0.00 | 0.00 | 0.00 | 61 | 1017.0 |
| 20260904211913 | 78 | 281 | 9.0 | 15.0 | 0.00 | 0.00 | 0.00 | 61 | 1017.2 |
| 20260904210413 | 78 | 312 | 6.0 | 10.0 | 0.00 | 0.00 | 0.00 | 60 | 1017.1 |
| 20260904204913 | 78 | 272 | 8.0 | 14.0 | 0.00 | 0.00 | 0.00 | 60 | 1017.0 |
| 20260904203413 | 78 | 293 | 3.0 | 8.0 | 0.00 | 0.00 | 0.00 | 60 | 1017.2 |
| 20260904201912 | 79 | 242 | 1.0 | 6.0 | 0.00 | 0.00 | 0.00 | 58 | 1017.2 |
| 20260904200412 | 79 | 296 | 2.0 | 9.0 | 0.00 | 0.00 | 0.00 | 57 | 1017.2 |
| 20260904194912 | 79 | 270 | 5.0 | 12.0 | 0.00 | 0.00 | 0.00 | 57 | 1017.2 |
| 20260904193412 | 79 | 313 | 3.0 | 11.0 | 0.00 | 0.00 | 0.00 | 57 | 1017.2 |
| 20260904191912 | 80 | 286 | 3.0 | 11.0 | 0.00 | 0.00 | 0.00 | 56 | 1017.4 |
| 20260904190412 | 80 | 271 | 5.0 | 23.0 | 0.00 | 0.00 | 0.00 | 55 | 1017.3 |
| 20260904184912 | 80 | 287 | 9.0 | 17.0 | 0.00 | 0.00 | 0.00 | 55 | 1017.4 |
| 20260904183411 | 81 | 275 | 4.0 | 12.0 | 0.00 | 0.00 | 0.00 | 54 | 1017.4 |
| 20260904181911 | 81 | 294 | 12.0 | 15.0 | 0.00 | 0.00 | 0.00 | 53 | 1017.4 |
| 20260904180411 | 81 | 308 | 12.0 | 15.0 | 0.00 | 0.00 | 0.00 | 53 | 1017.1 |
| 20260904174911 | 81 | 266 | 2.0 | 17.0 | 0.00 | 0.00 | 0.00 | 54 | 1017.0 |
| 20260904173411 | 81 | 271 | 4.0 | 11.0 | 0.00 | 0.00 | 0.00 | 54 | 1017.0 |
| 20260904171911 | 83 | 249 | 6.0 | 11.0 | 0.00 | 0.00 | 0.00 | 52 | 1017.1 |
| 20260904164911 | 85 | 254 | 4.0 | 12.0 | 0.00 | 0.00 | 0.00 | 48 | 1016.9 |
| 20260904161911 | 87 | 215 | 5.0 | 11.0 | 0.00 | 0.00 | 0.00 | 47 | 1017.2 |
| 20260904160411 | 87 | 250 | 6.0 | 13.0 | 0.00 | 0.00 | 0.00 | 45 | 1017.2 |